Data supplied by UK-AIR on 5/4/2008
All Data GMT hour ending 
Status: R =Ratified P=Provisional,P*=As supplied
,,Walsall Alumwell,,,,,,,,,,,,,,,,,,,,,,,
Date,time,"Nitric oxide",status,unit,"Nitrogen dioxide",status,unit,"Nitrogen oxides as nitrogen dioxide",status,unit
 
01-01-1995,01:00,,,,,,,,,
01-01-1995,02:00,10,R,ugm-3,21,R,ugm-3,36,R,ugm-3
01-01-1995,03:00,28,R,ugm-3,36,R,ugm-3,78,R,ugm-3
01-01-1995,04:00,29,R,ugm-3,32,R,ugm-3,76,R,ugm-3
01-01-1995,05:00,18,R,ugm-3,23,R,ugm-3,50,R,ugm-3
01-01-1995,06:00,18,R,ugm-3,23,R,ugm-3,50,R,ugm-3
01-01-1995,07:00,16,R,ugm-3,15,R,ugm-3,40,R,ugm-3
01-01-1995,08:00,16,R,ugm-3,11,R,ugm-3,36,R,ugm-3
01-01-1995,09:00,14,R,ugm-3,6,R,ugm-3,27,R,ugm-3
01-01-1995,10:00,5,R,ugm-3,2,R,ugm-3,10,R,ugm-3
01-01-1995,11:00,4,R,ugm-3,8,R,ugm-3,13,R,ugm-3
01-01-1995,12:00,6,R,ugm-3,13,R,ugm-3,23,R,ugm-3
01-01-1995,13:00,5,R,ugm-3,19,R,ugm-3,27,R,ugm-3
01-01-1995,14:00,3,R,ugm-3,15,R,ugm-3,19,R,ugm-3
01-01-1995,15:00,19,R,ugm-3,31,R,ugm-3,59,R,ugm-3
01-01-1995,16:00,31,R,ugm-3,40,R,ugm-3,88,R,ugm-3
01-01-1995,17:00,45,R,ugm-3,44,R,ugm-3,113,R,ugm-3
01-01-1995,18:00,50,R,ugm-3,46,R,ugm-3,122,R,ugm-3
01-01-1995,19:00,40,R,ugm-3,42,R,ugm-3,103,R,ugm-3
01-01-1995,20:00,26,R,ugm-3,38,R,ugm-3,78,R,ugm-3
01-01-1995,21:00,18,R,ugm-3,32,R,ugm-3,59,R,ugm-3
01-01-1995,22:00,9,R,ugm-3,21,R,ugm-3,34,R,ugm-3
01-01-1995,23:00,9,R,ugm-3,21,R,ugm-3,34,R,ugm-3
01-01-1995,24:00,3,R,ugm-3,8,R,ugm-3,11,R,ugm-3
02-01-1995,01:00,9,R,ugm-3,11,R,ugm-3,25,R,ugm-3
02-01-1995,02:00,4,R,ugm-3,6,R,ugm-3,11,R,ugm-3
02-01-1995,03:00,5,R,ugm-3,8,R,ugm-3,15,R,ugm-3
02-01-1995,04:00,8,R,ugm-3,10,R,ugm-3,21,R,ugm-3
02-01-1995,05:00,4,R,ugm-3,8,R,ugm-3,13,R,ugm-3
02-01-1995,06:00,3,R,ugm-3,6,R,ugm-3,10,R,ugm-3
02-01-1995,07:00,3,R,ugm-3,11,R,ugm-3,15,R,ugm-3
02-01-1995,08:00,1,R,ugm-3,19,R,ugm-3,21,R,ugm-3
02-01-1995,09:00,5,R,ugm-3,19,R,ugm-3,27,R,ugm-3
02-01-1995,10:00,10,R,ugm-3,29,R,ugm-3,44,R,ugm-3
02-01-1995,11:00,19,R,ugm-3,31,R,ugm-3,59,R,ugm-3
02-01-1995,12:00,25,R,ugm-3,36,R,ugm-3,74,R,ugm-3
02-01-1995,13:00,26,R,ugm-3,36,R,ugm-3,76,R,ugm-3
02-01-1995,14:00,35,R,ugm-3,42,R,ugm-3,96,R,ugm-3
02-01-1995,15:00,39,R,ugm-3,48,R,ugm-3,107,R,ugm-3
02-01-1995,16:00,51,R,ugm-3,53,R,ugm-3,132,R,ugm-3
02-01-1995,17:00,70,R,ugm-3,57,R,ugm-3,164,R,ugm-3
02-01-1995,18:00,101,R,ugm-3,57,R,ugm-3,212,R,ugm-3
02-01-1995,19:00,135,R,ugm-3,53,R,ugm-3,260,R,ugm-3
02-01-1995,20:00,171,R,ugm-3,55,R,ugm-3,317,R,ugm-3
02-01-1995,21:00,186,R,ugm-3,53,R,ugm-3,338,R,ugm-3
02-01-1995,22:00,193,R,ugm-3,55,R,ugm-3,350,R,ugm-3
02-01-1995,23:00,158,R,ugm-3,52,R,ugm-3,292,R,ugm-3
02-01-1995,24:00,168,R,ugm-3,50,R,ugm-3,306,R,ugm-3
03-01-1995,01:00,226,R,ugm-3,36,R,ugm-3,382,R,ugm-3
03-01-1995,02:00,281,R,ugm-3,31,R,ugm-3,460,R,ugm-3
03-01-1995,03:00,135,R,ugm-3,34,R,ugm-3,241,R,ugm-3
03-01-1995,04:00,203,R,ugm-3,29,R,ugm-3,338,R,ugm-3
03-01-1995,05:00,194,R,ugm-3,21,R,ugm-3,317,R,ugm-3
03-01-1995,06:00,370,R,ugm-3,36,R,ugm-3,602,R,ugm-3
03-01-1995,07:00,341,R,ugm-3,31,R,ugm-3,552,R,ugm-3
03-01-1995,08:00,700,R,ugm-3,65,R,ugm-3,1135,R,ugm-3
03-01-1995,09:00,739,R,ugm-3,107,R,ugm-3,1236,R,ugm-3
03-01-1995,10:00,718,R,ugm-3,120,R,ugm-3,1217,R,ugm-3
03-01-1995,11:00,421,R,ugm-3,101,R,ugm-3,745,R,ugm-3
03-01-1995,12:00,85,R,ugm-3,50,R,ugm-3,180,R,ugm-3
03-01-1995,13:00,61,R,ugm-3,48,R,ugm-3,141,R,ugm-3
03-01-1995,14:00,51,R,ugm-3,46,R,ugm-3,124,R,ugm-3
03-01-1995,15:00,68,R,ugm-3,53,R,ugm-3,157,R,ugm-3
03-01-1995,16:00,90,R,ugm-3,59,R,ugm-3,197,R,ugm-3
03-01-1995,17:00,94,R,ugm-3,52,R,ugm-3,195,R,ugm-3
03-01-1995,18:00,96,R,ugm-3,50,R,ugm-3,197,R,ugm-3
03-01-1995,19:00,111,R,ugm-3,52,R,ugm-3,222,R,ugm-3
03-01-1995,20:00,86,R,ugm-3,53,R,ugm-3,185,R,ugm-3
03-01-1995,21:00,39,R,ugm-3,46,R,ugm-3,105,R,ugm-3
03-01-1995,22:00,56,R,ugm-3,52,R,ugm-3,138,R,ugm-3
03-01-1995,23:00,68,R,ugm-3,55,R,ugm-3,159,R,ugm-3
03-01-1995,24:00,63,R,ugm-3,53,R,ugm-3,149,R,ugm-3
04-01-1995,01:00,20,R,ugm-3,42,R,ugm-3,73,R,ugm-3
04-01-1995,02:00,6,R,ugm-3,11,R,ugm-3,21,R,ugm-3
04-01-1995,03:00,4,R,ugm-3,13,R,ugm-3,19,R,ugm-3
04-01-1995,04:00,3,R,ugm-3,21,R,ugm-3,25,R,ugm-3
04-01-1995,05:00,5,R,ugm-3,13,R,ugm-3,21,R,ugm-3
04-01-1995,06:00,10,R,ugm-3,21,R,ugm-3,36,R,ugm-3
04-01-1995,07:00,15,R,ugm-3,29,R,ugm-3,52,R,ugm-3
04-01-1995,08:00,20,R,ugm-3,38,R,ugm-3,69,R,ugm-3
04-01-1995,09:00,20,R,ugm-3,40,R,ugm-3,71,R,ugm-3
04-01-1995,10:00,16,R,ugm-3,36,R,ugm-3,61,R,ugm-3
04-01-1995,11:00,18,R,ugm-3,36,R,ugm-3,63,R,ugm-3
04-01-1995,12:00,16,R,ugm-3,32,R,ugm-3,57,R,ugm-3
04-01-1995,13:00,14,R,ugm-3,27,R,ugm-3,48,R,ugm-3
04-01-1995,14:00,16,R,ugm-3,27,R,ugm-3,52,R,ugm-3
04-01-1995,15:00,18,R,ugm-3,36,R,ugm-3,63,R,ugm-3
04-01-1995,16:00,19,R,ugm-3,34,R,ugm-3,63,R,ugm-3
04-01-1995,17:00,20,R,ugm-3,38,R,ugm-3,69,R,ugm-3
04-01-1995,18:00,18,R,ugm-3,34,R,ugm-3,61,R,ugm-3
04-01-1995,19:00,15,R,ugm-3,32,R,ugm-3,55,R,ugm-3
04-01-1995,20:00,15,R,ugm-3,29,R,ugm-3,52,R,ugm-3
04-01-1995,21:00,14,R,ugm-3,23,R,ugm-3,44,R,ugm-3
04-01-1995,22:00,14,R,ugm-3,21,R,ugm-3,42,R,ugm-3
04-01-1995,23:00,11,R,ugm-3,13,R,ugm-3,31,R,ugm-3
04-01-1995,24:00,11,R,ugm-3,10,R,ugm-3,27,R,ugm-3
05-01-1995,01:00,3,R,ugm-3,19,R,ugm-3,23,R,ugm-3
05-01-1995,02:00,3,R,ugm-3,19,R,ugm-3,23,R,ugm-3
05-01-1995,03:00,4,R,ugm-3,13,R,ugm-3,19,R,ugm-3
05-01-1995,04:00,1,R,ugm-3,15,R,ugm-3,17,R,ugm-3
05-01-1995,05:00,3,R,ugm-3,17,R,ugm-3,21,R,ugm-3
05-01-1995,06:00,5,R,ugm-3,25,R,ugm-3,32,R,ugm-3
05-01-1995,07:00,10,R,ugm-3,32,R,ugm-3,48,R,ugm-3
05-01-1995,08:00,21,R,ugm-3,42,R,ugm-3,74,R,ugm-3
05-01-1995,09:00,24,R,ugm-3,44,R,ugm-3,80,R,ugm-3
05-01-1995,10:00,20,R,ugm-3,42,R,ugm-3,73,R,ugm-3
05-01-1995,11:00,20,R,ugm-3,40,R,ugm-3,71,R,ugm-3
05-01-1995,12:00,23,R,ugm-3,40,R,ugm-3,74,R,ugm-3
05-01-1995,13:00,33,R,ugm-3,46,R,ugm-3,96,R,ugm-3
05-01-1995,14:00,60,R,ugm-3,42,R,ugm-3,134,R,ugm-3
05-01-1995,15:00,95,R,ugm-3,50,R,ugm-3,195,R,ugm-3
05-01-1995,16:00,,,,,,,,,
05-01-1995,17:00,160,R,ugm-3,74,R,ugm-3,319,R,ugm-3
05-01-1995,18:00,194,R,ugm-3,84,R,ugm-3,380,R,ugm-3
05-01-1995,19:00,134,R,ugm-3,76,R,ugm-3,281,R,ugm-3
05-01-1995,20:00,134,R,ugm-3,74,R,ugm-3,279,R,ugm-3
05-01-1995,21:00,126,R,ugm-3,67,R,ugm-3,260,R,ugm-3
05-01-1995,22:00,64,R,ugm-3,59,R,ugm-3,157,R,ugm-3
05-01-1995,23:00,60,R,ugm-3,57,R,ugm-3,149,R,ugm-3
05-01-1995,24:00,79,R,ugm-3,61,R,ugm-3,181,R,ugm-3
06-01-1995,01:00,39,R,ugm-3,63,R,ugm-3,122,R,ugm-3
06-01-1995,02:00,31,R,ugm-3,55,R,ugm-3,103,R,ugm-3
06-01-1995,03:00,23,R,ugm-3,52,R,ugm-3,86,R,ugm-3
06-01-1995,04:00,21,R,ugm-3,52,R,ugm-3,84,R,ugm-3
06-01-1995,05:00,36,R,ugm-3,61,R,ugm-3,117,R,ugm-3
06-01-1995,06:00,55,R,ugm-3,67,R,ugm-3,151,R,ugm-3
06-01-1995,07:00,51,R,ugm-3,59,R,ugm-3,138,R,ugm-3
06-01-1995,08:00,63,R,ugm-3,67,R,ugm-3,162,R,ugm-3
06-01-1995,09:00,95,R,ugm-3,74,R,ugm-3,220,R,ugm-3
06-01-1995,10:00,105,R,ugm-3,76,R,ugm-3,237,R,ugm-3
06-01-1995,11:00,74,R,ugm-3,67,R,ugm-3,180,R,ugm-3
06-01-1995,12:00,51,R,ugm-3,53,R,ugm-3,132,R,ugm-3
06-01-1995,13:00,50,R,ugm-3,55,R,ugm-3,132,R,ugm-3
06-01-1995,14:00,45,R,ugm-3,53,R,ugm-3,122,R,ugm-3
06-01-1995,15:00,45,R,ugm-3,57,R,ugm-3,126,R,ugm-3
06-01-1995,16:00,54,R,ugm-3,61,R,ugm-3,143,R,ugm-3
06-01-1995,17:00,74,R,ugm-3,69,R,ugm-3,181,R,ugm-3
06-01-1995,18:00,100,R,ugm-3,76,R,ugm-3,229,R,ugm-3
06-01-1995,19:00,91,R,ugm-3,74,R,ugm-3,214,R,ugm-3
06-01-1995,20:00,54,R,ugm-3,69,R,ugm-3,151,R,ugm-3
06-01-1995,21:00,104,R,ugm-3,71,R,ugm-3,229,R,ugm-3
06-01-1995,22:00,159,R,ugm-3,74,R,ugm-3,317,R,ugm-3
06-01-1995,23:00,275,R,ugm-3,76,R,ugm-3,497,R,ugm-3
06-01-1995,24:00,385,R,ugm-3,78,R,ugm-3,667,R,ugm-3
07-01-1995,01:00,321,R,ugm-3,74,R,ugm-3,565,R,ugm-3
07-01-1995,02:00,71,R,ugm-3,63,R,ugm-3,172,R,ugm-3
07-01-1995,03:00,169,R,ugm-3,61,R,ugm-3,319,R,ugm-3
07-01-1995,04:00,261,R,ugm-3,73,R,ugm-3,472,R,ugm-3
07-01-1995,05:00,158,R,ugm-3,67,R,ugm-3,308,R,ugm-3
07-01-1995,06:00,48,R,ugm-3,63,R,ugm-3,136,R,ugm-3
07-01-1995,07:00,59,R,ugm-3,63,R,ugm-3,153,R,ugm-3
07-01-1995,08:00,99,R,ugm-3,69,R,ugm-3,220,R,ugm-3
07-01-1995,09:00,123,R,ugm-3,73,R,ugm-3,260,R,ugm-3
07-01-1995,10:00,129,R,ugm-3,73,R,ugm-3,269,R,ugm-3
07-01-1995,11:00,113,R,ugm-3,73,R,ugm-3,244,R,ugm-3
07-01-1995,12:00,86,R,ugm-3,69,R,ugm-3,201,R,ugm-3
07-01-1995,13:00,73,R,ugm-3,65,R,ugm-3,176,R,ugm-3
07-01-1995,14:00,64,R,ugm-3,63,R,ugm-3,160,R,ugm-3
07-01-1995,15:00,64,R,ugm-3,63,R,ugm-3,160,R,ugm-3
07-01-1995,16:00,61,R,ugm-3,67,R,ugm-3,160,R,ugm-3
07-01-1995,17:00,75,R,ugm-3,65,R,ugm-3,180,R,ugm-3
07-01-1995,18:00,69,R,ugm-3,69,R,ugm-3,174,R,ugm-3
07-01-1995,19:00,70,R,ugm-3,65,R,ugm-3,172,R,ugm-3
07-01-1995,20:00,45,R,ugm-3,63,R,ugm-3,132,R,ugm-3
07-01-1995,21:00,41,R,ugm-3,61,R,ugm-3,124,R,ugm-3
07-01-1995,22:00,53,R,ugm-3,59,R,ugm-3,139,R,ugm-3
07-01-1995,23:00,23,R,ugm-3,52,R,ugm-3,86,R,ugm-3
07-01-1995,24:00,21,R,ugm-3,50,R,ugm-3,82,R,ugm-3
08-01-1995,01:00,,,,,,,,,
08-01-1995,02:00,6,R,ugm-3,21,R,ugm-3,31,R,ugm-3
08-01-1995,03:00,9,R,ugm-3,25,R,ugm-3,38,R,ugm-3
08-01-1995,04:00,5,R,ugm-3,17,R,ugm-3,25,R,ugm-3
08-01-1995,05:00,5,R,ugm-3,15,R,ugm-3,23,R,ugm-3
08-01-1995,06:00,6,R,ugm-3,19,R,ugm-3,29,R,ugm-3
08-01-1995,07:00,9,R,ugm-3,23,R,ugm-3,36,R,ugm-3
08-01-1995,08:00,18,R,ugm-3,29,R,ugm-3,55,R,ugm-3
08-01-1995,09:00,19,R,ugm-3,31,R,ugm-3,59,R,ugm-3
08-01-1995,10:00,18,R,ugm-3,42,R,ugm-3,69,R,ugm-3
08-01-1995,11:00,25,R,ugm-3,32,R,ugm-3,71,R,ugm-3
08-01-1995,12:00,26,R,ugm-3,31,R,ugm-3,71,R,ugm-3
08-01-1995,13:00,30,R,ugm-3,29,R,ugm-3,74,R,ugm-3
08-01-1995,14:00,26,R,ugm-3,29,R,ugm-3,69,R,ugm-3
08-01-1995,15:00,40,R,ugm-3,29,R,ugm-3,90,R,ugm-3
08-01-1995,16:00,50,R,ugm-3,29,R,ugm-3,105,R,ugm-3
08-01-1995,17:00,50,R,ugm-3,34,R,ugm-3,111,R,ugm-3
08-01-1995,18:00,39,R,ugm-3,34,R,ugm-3,94,R,ugm-3
08-01-1995,19:00,58,R,ugm-3,29,R,ugm-3,117,R,ugm-3
08-01-1995,20:00,44,R,ugm-3,36,R,ugm-3,103,R,ugm-3
08-01-1995,21:00,35,R,ugm-3,34,R,ugm-3,88,R,ugm-3
08-01-1995,22:00,75,R,ugm-3,25,R,ugm-3,139,R,ugm-3
08-01-1995,23:00,49,R,ugm-3,32,R,ugm-3,107,R,ugm-3
08-01-1995,24:00,30,R,ugm-3,32,R,ugm-3,78,R,ugm-3
09-01-1995,01:00,45,R,ugm-3,55,R,ugm-3,124,R,ugm-3
09-01-1995,02:00,46,R,ugm-3,59,R,ugm-3,130,R,ugm-3
09-01-1995,03:00,36,R,ugm-3,42,R,ugm-3,97,R,ugm-3
09-01-1995,04:00,41,R,ugm-3,48,R,ugm-3,111,R,ugm-3
09-01-1995,05:00,70,R,ugm-3,63,R,ugm-3,170,R,ugm-3
09-01-1995,06:00,95,R,ugm-3,65,R,ugm-3,210,R,ugm-3
09-01-1995,07:00,105,R,ugm-3,67,R,ugm-3,227,R,ugm-3
09-01-1995,08:00,128,R,ugm-3,80,R,ugm-3,275,R,ugm-3
09-01-1995,09:00,118,R,ugm-3,80,R,ugm-3,260,R,ugm-3
09-01-1995,10:00,110,R,ugm-3,67,R,ugm-3,235,R,ugm-3
09-01-1995,11:00,69,R,ugm-3,50,R,ugm-3,155,R,ugm-3
09-01-1995,12:00,51,R,ugm-3,46,R,ugm-3,124,R,ugm-3
09-01-1995,13:00,51,R,ugm-3,46,R,ugm-3,124,R,ugm-3
09-01-1995,14:00,51,R,ugm-3,46,R,ugm-3,124,R,ugm-3
09-01-1995,15:00,45,R,ugm-3,38,R,ugm-3,107,R,ugm-3
09-01-1995,16:00,44,R,ugm-3,40,R,ugm-3,107,R,ugm-3
09-01-1995,17:00,36,R,ugm-3,36,R,ugm-3,92,R,ugm-3
09-01-1995,18:00,28,R,ugm-3,36,R,ugm-3,78,R,ugm-3
09-01-1995,19:00,24,R,ugm-3,38,R,ugm-3,74,R,ugm-3
09-01-1995,20:00,23,R,ugm-3,48,R,ugm-3,82,R,ugm-3
09-01-1995,21:00,18,R,ugm-3,21,R,ugm-3,48,R,ugm-3
09-01-1995,22:00,10,R,ugm-3,15,R,ugm-3,31,R,ugm-3
09-01-1995,23:00,9,R,ugm-3,11,R,ugm-3,25,R,ugm-3
09-01-1995,24:00,3,R,ugm-3,8,R,ugm-3,11,R,ugm-3
10-01-1995,01:00,5,R,ugm-3,8,R,ugm-3,15,R,ugm-3
10-01-1995,02:00,6,R,ugm-3,15,R,ugm-3,25,R,ugm-3
10-01-1995,03:00,3,R,ugm-3,13,R,ugm-3,17,R,ugm-3
10-01-1995,04:00,5,R,ugm-3,11,R,ugm-3,19,R,ugm-3
10-01-1995,05:00,10,R,ugm-3,23,R,ugm-3,38,R,ugm-3
10-01-1995,06:00,36,R,ugm-3,44,R,ugm-3,99,R,ugm-3
10-01-1995,07:00,71,R,ugm-3,65,R,ugm-3,174,R,ugm-3
10-01-1995,08:00,86,R,ugm-3,76,R,ugm-3,208,R,ugm-3
10-01-1995,09:00,89,R,ugm-3,82,R,ugm-3,218,R,ugm-3
10-01-1995,10:00,124,R,ugm-3,88,R,ugm-3,277,R,ugm-3
10-01-1995,11:00,116,R,ugm-3,78,R,ugm-3,256,R,ugm-3
10-01-1995,12:00,100,R,ugm-3,69,R,ugm-3,222,R,ugm-3
10-01-1995,13:00,61,R,ugm-3,52,R,ugm-3,145,R,ugm-3
10-01-1995,14:00,53,R,ugm-3,44,R,ugm-3,124,R,ugm-3
10-01-1995,15:00,56,R,ugm-3,48,R,ugm-3,134,R,ugm-3
10-01-1995,16:00,58,R,ugm-3,50,R,ugm-3,138,R,ugm-3
10-01-1995,17:00,51,R,ugm-3,52,R,ugm-3,130,R,ugm-3
10-01-1995,18:00,64,R,ugm-3,73,R,ugm-3,170,R,ugm-3
10-01-1995,19:00,60,R,ugm-3,67,R,ugm-3,159,R,ugm-3
10-01-1995,20:00,48,R,ugm-3,48,R,ugm-3,120,R,ugm-3
10-01-1995,21:00,35,R,ugm-3,36,R,ugm-3,90,R,ugm-3
10-01-1995,22:00,28,R,ugm-3,31,R,ugm-3,73,R,ugm-3
10-01-1995,23:00,21,R,ugm-3,32,R,ugm-3,65,R,ugm-3
10-01-1995,24:00,24,R,ugm-3,40,R,ugm-3,76,R,ugm-3
11-01-1995,01:00,8,R,ugm-3,46,R,ugm-3,57,R,ugm-3
11-01-1995,02:00,44,R,ugm-3,63,R,ugm-3,130,R,ugm-3
11-01-1995,03:00,19,R,ugm-3,55,R,ugm-3,84,R,ugm-3
11-01-1995,04:00,25,R,ugm-3,63,R,ugm-3,101,R,ugm-3
11-01-1995,05:00,54,R,ugm-3,71,R,ugm-3,153,R,ugm-3
11-01-1995,06:00,60,R,ugm-3,61,R,ugm-3,153,R,ugm-3
11-01-1995,07:00,96,R,ugm-3,67,R,ugm-3,214,R,ugm-3
11-01-1995,08:00,141,R,ugm-3,67,R,ugm-3,283,R,ugm-3
11-01-1995,09:00,151,R,ugm-3,73,R,ugm-3,304,R,ugm-3
11-01-1995,10:00,115,R,ugm-3,74,R,ugm-3,250,R,ugm-3
11-01-1995,11:00,63,R,ugm-3,65,R,ugm-3,160,R,ugm-3
11-01-1995,12:00,60,R,ugm-3,67,R,ugm-3,159,R,ugm-3
11-01-1995,13:00,131,R,ugm-3,80,R,ugm-3,281,R,ugm-3
11-01-1995,14:00,79,R,ugm-3,69,R,ugm-3,189,R,ugm-3
11-01-1995,15:00,68,R,ugm-3,67,R,ugm-3,170,R,ugm-3
11-01-1995,16:00,100,R,ugm-3,74,R,ugm-3,227,R,ugm-3
11-01-1995,17:00,113,R,ugm-3,74,R,ugm-3,246,R,ugm-3
11-01-1995,18:00,129,R,ugm-3,76,R,ugm-3,273,R,ugm-3
11-01-1995,19:00,116,R,ugm-3,73,R,ugm-3,250,R,ugm-3
11-01-1995,20:00,99,R,ugm-3,71,R,ugm-3,222,R,ugm-3
11-01-1995,21:00,89,R,ugm-3,67,R,ugm-3,202,R,ugm-3
11-01-1995,22:00,51,R,ugm-3,67,R,ugm-3,145,R,ugm-3
11-01-1995,23:00,43,R,ugm-3,63,R,ugm-3,128,R,ugm-3
11-01-1995,24:00,75,R,ugm-3,67,R,ugm-3,181,R,ugm-3
12-01-1995,01:00,70,R,ugm-3,76,R,ugm-3,183,R,ugm-3
12-01-1995,02:00,24,R,ugm-3,57,R,ugm-3,94,R,ugm-3
12-01-1995,03:00,15,R,ugm-3,55,R,ugm-3,78,R,ugm-3
12-01-1995,04:00,10,R,ugm-3,50,R,ugm-3,65,R,ugm-3
12-01-1995,05:00,11,R,ugm-3,55,R,ugm-3,73,R,ugm-3
12-01-1995,06:00,28,R,ugm-3,57,R,ugm-3,99,R,ugm-3
12-01-1995,07:00,55,R,ugm-3,65,R,ugm-3,149,R,ugm-3
12-01-1995,08:00,44,R,ugm-3,67,R,ugm-3,134,R,ugm-3
12-01-1995,09:00,51,R,ugm-3,69,R,ugm-3,147,R,ugm-3
12-01-1995,10:00,45,R,ugm-3,63,R,ugm-3,132,R,ugm-3
12-01-1995,11:00,75,R,ugm-3,69,R,ugm-3,183,R,ugm-3
12-01-1995,12:00,68,R,ugm-3,69,R,ugm-3,172,R,ugm-3
12-01-1995,13:00,45,R,ugm-3,59,R,ugm-3,128,R,ugm-3
12-01-1995,14:00,61,R,ugm-3,63,R,ugm-3,157,R,ugm-3
12-01-1995,15:00,101,R,ugm-3,80,R,ugm-3,235,R,ugm-3
12-01-1995,16:00,105,R,ugm-3,82,R,ugm-3,243,R,ugm-3
12-01-1995,17:00,171,R,ugm-3,86,R,ugm-3,348,R,ugm-3
12-01-1995,18:00,301,R,ugm-3,92,R,ugm-3,552,R,ugm-3
12-01-1995,19:00,436,R,ugm-3,99,R,ugm-3,766,R,ugm-3
12-01-1995,20:00,319,R,ugm-3,90,R,ugm-3,577,R,ugm-3
12-01-1995,21:00,195,R,ugm-3,80,R,ugm-3,378,R,ugm-3
12-01-1995,22:00,156,R,ugm-3,80,R,ugm-3,319,R,ugm-3
12-01-1995,23:00,129,R,ugm-3,78,R,ugm-3,275,R,ugm-3
12-01-1995,24:00,55,R,ugm-3,71,R,ugm-3,155,R,ugm-3
13-01-1995,01:00,65,R,ugm-3,71,R,ugm-3,170,R,ugm-3
13-01-1995,02:00,40,R,ugm-3,63,R,ugm-3,124,R,ugm-3
13-01-1995,03:00,30,R,ugm-3,52,R,ugm-3,97,R,ugm-3
13-01-1995,04:00,16,R,ugm-3,40,R,ugm-3,65,R,ugm-3
13-01-1995,05:00,33,R,ugm-3,55,R,ugm-3,105,R,ugm-3
13-01-1995,06:00,60,R,ugm-3,65,R,ugm-3,157,R,ugm-3
13-01-1995,07:00,124,R,ugm-3,82,R,ugm-3,271,R,ugm-3
13-01-1995,08:00,169,R,ugm-3,84,R,ugm-3,342,R,ugm-3
13-01-1995,09:00,136,R,ugm-3,82,R,ugm-3,290,R,ugm-3
13-01-1995,10:00,181,R,ugm-3,86,R,ugm-3,363,R,ugm-3
13-01-1995,11:00,168,R,ugm-3,86,R,ugm-3,342,R,ugm-3
13-01-1995,12:00,129,R,ugm-3,80,R,ugm-3,277,R,ugm-3
13-01-1995,13:00,114,R,ugm-3,78,R,ugm-3,252,R,ugm-3
13-01-1995,14:00,126,R,ugm-3,82,R,ugm-3,275,R,ugm-3
13-01-1995,15:00,118,R,ugm-3,74,R,ugm-3,254,R,ugm-3
13-01-1995,16:00,150,R,ugm-3,82,R,ugm-3,311,R,ugm-3
13-01-1995,17:00,131,R,ugm-3,82,R,ugm-3,283,R,ugm-3
13-01-1995,18:00,116,R,ugm-3,76,R,ugm-3,254,R,ugm-3
13-01-1995,19:00,98,R,ugm-3,74,R,ugm-3,223,R,ugm-3
13-01-1995,20:00,116,R,ugm-3,73,R,ugm-3,250,R,ugm-3
13-01-1995,21:00,100,R,ugm-3,71,R,ugm-3,223,R,ugm-3
13-01-1995,22:00,65,R,ugm-3,67,R,ugm-3,166,R,ugm-3
13-01-1995,23:00,33,R,ugm-3,53,R,ugm-3,103,R,ugm-3
13-01-1995,24:00,28,R,ugm-3,55,R,ugm-3,97,R,ugm-3
14-01-1995,01:00,18,R,ugm-3,50,R,ugm-3,76,R,ugm-3
14-01-1995,02:00,14,R,ugm-3,46,R,ugm-3,67,R,ugm-3
14-01-1995,03:00,14,R,ugm-3,53,R,ugm-3,74,R,ugm-3
14-01-1995,04:00,8,R,ugm-3,40,R,ugm-3,52,R,ugm-3
14-01-1995,05:00,10,R,ugm-3,40,R,ugm-3,55,R,ugm-3
14-01-1995,06:00,13,R,ugm-3,40,R,ugm-3,59,R,ugm-3
14-01-1995,07:00,16,R,ugm-3,50,R,ugm-3,74,R,ugm-3
14-01-1995,08:00,33,R,ugm-3,63,R,ugm-3,113,R,ugm-3
14-01-1995,09:00,63,R,ugm-3,73,R,ugm-3,168,R,ugm-3
14-01-1995,10:00,45,R,ugm-3,71,R,ugm-3,139,R,ugm-3
14-01-1995,11:00,40,R,ugm-3,65,R,ugm-3,126,R,ugm-3
14-01-1995,12:00,45,R,ugm-3,67,R,ugm-3,136,R,ugm-3
14-01-1995,13:00,49,R,ugm-3,61,R,ugm-3,136,R,ugm-3
14-01-1995,14:00,38,R,ugm-3,57,R,ugm-3,115,R,ugm-3
14-01-1995,15:00,29,R,ugm-3,50,R,ugm-3,94,R,ugm-3
14-01-1995,16:00,24,R,ugm-3,50,R,ugm-3,86,R,ugm-3
14-01-1995,17:00,26,R,ugm-3,59,R,ugm-3,99,R,ugm-3
14-01-1995,18:00,30,R,ugm-3,59,R,ugm-3,105,R,ugm-3
14-01-1995,19:00,25,R,ugm-3,61,R,ugm-3,99,R,ugm-3
14-01-1995,20:00,21,R,ugm-3,63,R,ugm-3,96,R,ugm-3
14-01-1995,21:00,18,R,ugm-3,61,R,ugm-3,88,R,ugm-3
14-01-1995,22:00,14,R,ugm-3,50,R,ugm-3,71,R,ugm-3
14-01-1995,23:00,18,R,ugm-3,53,R,ugm-3,80,R,ugm-3
14-01-1995,24:00,6,R,ugm-3,46,R,ugm-3,55,R,ugm-3
15-01-1995,01:00,4,R,ugm-3,55,R,ugm-3,61,R,ugm-3
15-01-1995,02:00,23,R,ugm-3,61,R,ugm-3,96,R,ugm-3
15-01-1995,03:00,10,R,ugm-3,59,R,ugm-3,74,R,ugm-3
15-01-1995,04:00,8,R,ugm-3,67,R,ugm-3,78,R,ugm-3
15-01-1995,05:00,5,R,ugm-3,67,R,ugm-3,74,R,ugm-3
15-01-1995,06:00,5,R,ugm-3,67,R,ugm-3,74,R,ugm-3
15-01-1995,07:00,6,R,ugm-3,65,R,ugm-3,74,R,ugm-3
15-01-1995,08:00,11,R,ugm-3,73,R,ugm-3,90,R,ugm-3
15-01-1995,09:00,16,R,ugm-3,52,R,ugm-3,76,R,ugm-3
15-01-1995,10:00,14,R,ugm-3,48,R,ugm-3,69,R,ugm-3
15-01-1995,11:00,13,R,ugm-3,46,R,ugm-3,65,R,ugm-3
15-01-1995,12:00,11,R,ugm-3,50,R,ugm-3,67,R,ugm-3
15-01-1995,13:00,14,R,ugm-3,48,R,ugm-3,69,R,ugm-3
15-01-1995,14:00,14,R,ugm-3,52,R,ugm-3,73,R,ugm-3
15-01-1995,15:00,13,R,ugm-3,50,R,ugm-3,69,R,ugm-3
15-01-1995,16:00,15,R,ugm-3,53,R,ugm-3,76,R,ugm-3
15-01-1995,17:00,11,R,ugm-3,53,R,ugm-3,71,R,ugm-3
15-01-1995,18:00,16,R,ugm-3,52,R,ugm-3,76,R,ugm-3
15-01-1995,19:00,26,R,ugm-3,53,R,ugm-3,94,R,ugm-3
15-01-1995,20:00,13,R,ugm-3,42,R,ugm-3,61,R,ugm-3
15-01-1995,21:00,10,R,ugm-3,44,R,ugm-3,59,R,ugm-3
15-01-1995,22:00,11,R,ugm-3,46,R,ugm-3,63,R,ugm-3
15-01-1995,23:00,11,R,ugm-3,42,R,ugm-3,59,R,ugm-3
15-01-1995,24:00,8,R,ugm-3,36,R,ugm-3,48,R,ugm-3
16-01-1995,01:00,10,R,ugm-3,27,R,ugm-3,42,R,ugm-3
16-01-1995,02:00,19,R,ugm-3,34,R,ugm-3,63,R,ugm-3
16-01-1995,03:00,15,R,ugm-3,29,R,ugm-3,52,R,ugm-3
16-01-1995,04:00,21,R,ugm-3,27,R,ugm-3,59,R,ugm-3
16-01-1995,05:00,18,R,ugm-3,29,R,ugm-3,55,R,ugm-3
16-01-1995,06:00,15,R,ugm-3,31,R,ugm-3,53,R,ugm-3
16-01-1995,07:00,20,R,ugm-3,42,R,ugm-3,73,R,ugm-3
16-01-1995,08:00,15,R,ugm-3,46,R,ugm-3,69,R,ugm-3
16-01-1995,09:00,20,R,ugm-3,53,R,ugm-3,84,R,ugm-3
16-01-1995,10:00,18,R,ugm-3,48,R,ugm-3,74,R,ugm-3
16-01-1995,11:00,14,R,ugm-3,50,R,ugm-3,71,R,ugm-3
16-01-1995,12:00,18,R,ugm-3,46,R,ugm-3,73,R,ugm-3
16-01-1995,13:00,20,R,ugm-3,40,R,ugm-3,71,R,ugm-3
16-01-1995,14:00,21,R,ugm-3,40,R,ugm-3,73,R,ugm-3
16-01-1995,15:00,20,R,ugm-3,52,R,ugm-3,82,R,ugm-3
16-01-1995,16:00,26,R,ugm-3,55,R,ugm-3,96,R,ugm-3
16-01-1995,17:00,24,R,ugm-3,52,R,ugm-3,88,R,ugm-3
16-01-1995,18:00,21,R,ugm-3,46,R,ugm-3,78,R,ugm-3
16-01-1995,19:00,18,R,ugm-3,40,R,ugm-3,67,R,ugm-3
16-01-1995,20:00,11,R,ugm-3,32,R,ugm-3,50,R,ugm-3
16-01-1995,21:00,11,R,ugm-3,32,R,ugm-3,50,R,ugm-3
16-01-1995,22:00,6,R,ugm-3,31,R,ugm-3,40,R,ugm-3
16-01-1995,23:00,19,R,ugm-3,55,R,ugm-3,84,R,ugm-3
16-01-1995,24:00,16,R,ugm-3,59,R,ugm-3,84,R,ugm-3
17-01-1995,01:00,35,R,ugm-3,59,R,ugm-3,113,R,ugm-3
17-01-1995,02:00,23,R,ugm-3,38,R,ugm-3,73,R,ugm-3
17-01-1995,03:00,21,R,ugm-3,42,R,ugm-3,74,R,ugm-3
17-01-1995,04:00,18,R,ugm-3,34,R,ugm-3,61,R,ugm-3
17-01-1995,05:00,9,R,ugm-3,46,R,ugm-3,59,R,ugm-3
17-01-1995,06:00,11,R,ugm-3,52,R,ugm-3,69,R,ugm-3
17-01-1995,07:00,5,R,ugm-3,42,R,ugm-3,50,R,ugm-3
17-01-1995,08:00,6,R,ugm-3,44,R,ugm-3,53,R,ugm-3
17-01-1995,09:00,26,R,ugm-3,63,R,ugm-3,103,R,ugm-3
17-01-1995,10:00,55,R,ugm-3,67,R,ugm-3,151,R,ugm-3
17-01-1995,11:00,44,R,ugm-3,55,R,ugm-3,122,R,ugm-3
17-01-1995,12:00,16,R,ugm-3,34,R,ugm-3,59,R,ugm-3
17-01-1995,13:00,11,R,ugm-3,34,R,ugm-3,52,R,ugm-3
17-01-1995,14:00,11,R,ugm-3,32,R,ugm-3,50,R,ugm-3
17-01-1995,15:00,10,R,ugm-3,31,R,ugm-3,46,R,ugm-3
17-01-1995,16:00,9,R,ugm-3,27,R,ugm-3,40,R,ugm-3
17-01-1995,17:00,8,R,ugm-3,25,R,ugm-3,36,R,ugm-3
17-01-1995,18:00,19,R,ugm-3,34,R,ugm-3,63,R,ugm-3
17-01-1995,19:00,35,R,ugm-3,50,R,ugm-3,103,R,ugm-3
17-01-1995,20:00,26,R,ugm-3,40,R,ugm-3,80,R,ugm-3
17-01-1995,21:00,26,R,ugm-3,42,R,ugm-3,82,R,ugm-3
17-01-1995,22:00,29,R,ugm-3,46,R,ugm-3,90,R,ugm-3
17-01-1995,23:00,26,R,ugm-3,40,R,ugm-3,80,R,ugm-3
17-01-1995,24:00,21,R,ugm-3,34,R,ugm-3,67,R,ugm-3
18-01-1995,01:00,6,R,ugm-3,38,R,ugm-3,48,R,ugm-3
18-01-1995,02:00,0,R,ugm-3,25,R,ugm-3,25,R,ugm-3
18-01-1995,03:00,3,R,ugm-3,31,R,ugm-3,34,R,ugm-3
18-01-1995,04:00,1,R,ugm-3,29,R,ugm-3,31,R,ugm-3
18-01-1995,05:00,10,R,ugm-3,42,R,ugm-3,57,R,ugm-3
18-01-1995,06:00,16,R,ugm-3,52,R,ugm-3,76,R,ugm-3
18-01-1995,07:00,24,R,ugm-3,63,R,ugm-3,99,R,ugm-3
18-01-1995,08:00,63,R,ugm-3,78,R,ugm-3,174,R,ugm-3
18-01-1995,09:00,74,R,ugm-3,92,R,ugm-3,204,R,ugm-3
18-01-1995,10:00,103,R,ugm-3,90,R,ugm-3,246,R,ugm-3
18-01-1995,11:00,91,R,ugm-3,80,R,ugm-3,220,R,ugm-3
18-01-1995,12:00,66,R,ugm-3,76,R,ugm-3,178,R,ugm-3
18-01-1995,13:00,54,R,ugm-3,84,R,ugm-3,166,R,ugm-3
18-01-1995,14:00,70,R,ugm-3,88,R,ugm-3,195,R,ugm-3
18-01-1995,15:00,68,R,ugm-3,78,R,ugm-3,181,R,ugm-3
18-01-1995,16:00,56,R,ugm-3,84,R,ugm-3,170,R,ugm-3
18-01-1995,17:00,59,R,ugm-3,94,R,ugm-3,183,R,ugm-3
18-01-1995,18:00,84,R,ugm-3,97,R,ugm-3,225,R,ugm-3
18-01-1995,19:00,66,R,ugm-3,94,R,ugm-3,195,R,ugm-3
18-01-1995,20:00,73,R,ugm-3,82,R,ugm-3,193,R,ugm-3
18-01-1995,21:00,29,R,ugm-3,74,R,ugm-3,118,R,ugm-3
18-01-1995,22:00,26,R,ugm-3,67,R,ugm-3,107,R,ugm-3
18-01-1995,23:00,19,R,ugm-3,57,R,ugm-3,86,R,ugm-3
18-01-1995,24:00,18,R,ugm-3,61,R,ugm-3,88,R,ugm-3
19-01-1995,01:00,43,R,ugm-3,31,R,ugm-3,96,R,ugm-3
19-01-1995,02:00,33,R,ugm-3,23,R,ugm-3,73,R,ugm-3
19-01-1995,03:00,29,R,ugm-3,19,R,ugm-3,63,R,ugm-3
19-01-1995,04:00,26,R,ugm-3,17,R,ugm-3,57,R,ugm-3
19-01-1995,05:00,28,R,ugm-3,21,R,ugm-3,63,R,ugm-3
19-01-1995,06:00,31,R,ugm-3,29,R,ugm-3,76,R,ugm-3
19-01-1995,07:00,44,R,ugm-3,48,R,ugm-3,115,R,ugm-3
19-01-1995,08:00,79,R,ugm-3,59,R,ugm-3,180,R,ugm-3
19-01-1995,09:00,68,R,ugm-3,59,R,ugm-3,162,R,ugm-3
19-01-1995,10:00,58,R,ugm-3,52,R,ugm-3,139,R,ugm-3
19-01-1995,11:00,26,R,ugm-3,40,R,ugm-3,80,R,ugm-3
19-01-1995,12:00,20,R,ugm-3,40,R,ugm-3,71,R,ugm-3
19-01-1995,13:00,8,R,ugm-3,23,R,ugm-3,34,R,ugm-3
19-01-1995,14:00,4,R,ugm-3,13,R,ugm-3,19,R,ugm-3
19-01-1995,15:00,9,R,ugm-3,11,R,ugm-3,25,R,ugm-3
19-01-1995,16:00,40,R,ugm-3,29,R,ugm-3,90,R,ugm-3
19-01-1995,17:00,43,R,ugm-3,29,R,ugm-3,94,R,ugm-3
19-01-1995,18:00,40,R,ugm-3,17,R,ugm-3,78,R,ugm-3
19-01-1995,19:00,38,R,ugm-3,21,R,ugm-3,78,R,ugm-3
19-01-1995,20:00,50,R,ugm-3,34,R,ugm-3,111,R,ugm-3
19-01-1995,21:00,50,R,ugm-3,42,R,ugm-3,118,R,ugm-3
19-01-1995,22:00,50,R,ugm-3,46,R,ugm-3,122,R,ugm-3
19-01-1995,23:00,53,R,ugm-3,44,R,ugm-3,124,R,ugm-3
19-01-1995,24:00,35,R,ugm-3,32,R,ugm-3,86,R,ugm-3
20-01-1995,01:00,44,R,ugm-3,84,R,ugm-3,151,R,ugm-3
20-01-1995,02:00,31,R,ugm-3,76,R,ugm-3,124,R,ugm-3
20-01-1995,03:00,20,R,ugm-3,76,R,ugm-3,107,R,ugm-3
20-01-1995,04:00,9,R,ugm-3,57,R,ugm-3,71,R,ugm-3
20-01-1995,05:00,14,R,ugm-3,57,R,ugm-3,78,R,ugm-3
20-01-1995,06:00,28,R,ugm-3,67,R,ugm-3,109,R,ugm-3
20-01-1995,07:00,49,R,ugm-3,76,R,ugm-3,151,R,ugm-3
20-01-1995,08:00,30,R,ugm-3,78,R,ugm-3,124,R,ugm-3
20-01-1995,09:00,28,R,ugm-3,74,R,ugm-3,117,R,ugm-3
20-01-1995,10:00,25,R,ugm-3,59,R,ugm-3,97,R,ugm-3
20-01-1995,11:00,20,R,ugm-3,53,R,ugm-3,84,R,ugm-3
20-01-1995,12:00,,,,,,,,,
20-01-1995,13:00,,,,,,,,,
20-01-1995,14:00,51,R,ugm-3,67,R,ugm-3,145,R,ugm-3
20-01-1995,15:00,61,R,ugm-3,78,R,ugm-3,172,R,ugm-3
20-01-1995,16:00,58,R,ugm-3,74,R,ugm-3,162,R,ugm-3